Location: NJAA Observatory
(40.6819°N, 74.8979°W)
Time: 19:00:45
(UTC-05:00)

Courier 1B - All Passes

Search period start: 08 December 2016 00:00
Search period end: 18 December 2016 00:00
Orbit: 962 x 1209 km, 28.3° (Epoch: 08 December)

Date Brightness Start Highest point End Pass type
(mag) Time Alt. Az. Time Alt. Az. Time Alt. Az.
08 Dec - 06:34:52 10° S 06:38:12 13° SSE 06:41:31 10° SE visible
08 Dec - 08:25:14 10° SW 08:31:27 26° SSE 08:37:31 10° ESE daylight
08 Dec - 10:18:19 10° WSW 10:24:55 32° S 10:31:15 10° ESE daylight
08 Dec - 12:12:35 10° WSW 12:18:16 24° SSW 12:23:43 10° SE daylight
09 Dec - 07:31:53 10° SSW 07:37:45 23° SSE 07:43:33 10° ESE daylight
09 Dec - 09:24:30 10° WSW 09:31:12 32° S 09:37:40 10° ESE daylight
09 Dec - 11:18:27 10° WSW 11:24:39 27° SSW 11:30:34 10° SE daylight
09 Dec - 13:14:20 10° SW 13:17:43 14° SSW 13:21:04 10° S daylight
10 Dec - 06:38:46 10° SSW 06:44:05 20° SSE 06:49:22 10° ESE visible
10 Dec - 08:30:49 10° SW 08:37:28 31° S 08:43:58 10° ESE daylight
10 Dec - 10:24:27 10° WSW 10:30:58 30° S 10:37:15 10° SE daylight
10 Dec - 12:19:28 10° WSW 12:24:12 18° SSW 12:28:46 10° SSE daylight
11 Dec - 05:46:01 10° S 05:50:27 16° SSE 05:54:52 10° ESE visible
11 Dec - 07:37:14 10° SW 07:43:44 29° S 07:50:10 10° ESE daylight
11 Dec - 09:30:32 10° WSW 09:37:16 32° S 09:43:47 10° SE daylight
11 Dec - 11:25:03 10° WSW 11:30:37 22° SSW 11:35:59 10° SSE daylight
12 Dec - 04:53:58 10° S 04:56:49 12° SSE 04:59:43 10° SE visible
12 Dec - 06:43:49 10° SW 06:50:01 26° SSE 06:56:13 10° ESE visible
12 Dec - 08:36:43 10° WSW 08:43:31 33° S 08:50:12 10° ESE daylight
12 Dec - 10:30:51 10° WSW 10:36:58 26° SSW 10:42:54 10° SE daylight
12 Dec - 12:27:42 10° SW 12:30:03 12° SSW 12:32:22 10° S daylight
13 Dec - 05:50:36 10° SSW 05:56:20 23° SSE 06:02:07 10° ESE visible
13 Dec - 07:43:00 10° SW 07:49:46 32° S 07:56:29 10° ESE daylight
13 Dec - 09:36:48 10° WSW 09:43:17 29° SSW 09:49:36 10° SE daylight
13 Dec - 11:32:17 10° WSW 11:36:30 16° SSW 11:40:37 10° S daylight
14 Dec - 04:57:39 10° SSW 05:02:40 19° SSE 05:07:47 10° ESE visible
14 Dec - 06:49:24 10° SW 06:56:01 31° S 07:02:40 10° ESE daylight
14 Dec - 08:42:52 10° WSW 08:49:33 31° S 08:56:09 10° SE daylight
14 Dec - 10:37:38 10° WSW 10:42:54 20° SSW 10:48:02 10° SSE daylight
15 Dec - 04:05:09 10° S 04:09:04 15° SSE 04:13:03 10° ESE visible
15 Dec - 05:55:56 10° SW 06:02:17 28° SSE 06:08:44 10° ESE visible
15 Dec - 07:49:02 10° WSW 07:55:48 33° S 08:02:34 10° ESE daylight
15 Dec - 09:43:21 10° WSW 09:49:15 23° SSW 09:55:03 10° SSE daylight
16 Dec - 03:13:46 10° SSE 03:15:31 11° SSE 03:17:16 10° SE visible
16 Dec - 05:02:40 10° SW 05:08:35 25° SSE 05:14:40 10° ESE visible
16 Dec - 06:55:19 10° WSW 07:02:03 33° S 07:08:51 10° ESE daylight
16 Dec - 08:49:15 10° WSW 08:55:33 27° SSW 09:01:49 10° SE daylight
16 Dec - 10:45:24 10° SW 10:48:45 13° SSW 10:52:03 10° S daylight
17 Dec - 04:09:37 10° SSW 04:14:56 21° SSE 04:20:26 10° ESE visible
17 Dec - 06:01:43 10° SW 06:08:18 32° S 06:15:02 10° ESE visible
17 Dec - 07:55:18 10° WSW 08:01:50 30° S 08:08:23 10° SE daylight
17 Dec - 09:50:27 10° WSW 09:55:09 17° SSW 09:59:48 10° SSE daylight
